Starlink 1687

operational
NORAD ID: 46541 Int'l Des: 2020-070 Owner: SPXS Country: US Constellation: starlink
LEOCIRCULAR

关于 Starlink 1687

正在加载描述...

实时位置

正在加载3D地球...

即将过境

高度历史

Altitude vs Time

uPlot chart will show altitude changes over time

两行轨道根数

1 46541U 20070K 26037.00002315 .00378130 00000-0 17374-2 0 9994
2 46541 53.0401 253.3093 0002321 233.8278 172.4783 15.82072446 5962
Epoch: Feb 6, 2026 • Age: 6 hours

当前状态

高度 336.8 km
速度 7.71 km/s
星下点 -40.23°S, 8.18°W
发射日期 Oct 6, 2020
运行时间 5.3 years
类型 internet

技术详情

分类 Payload
质量 260.00 kg
干质量 248.00 kg
总质量 260.00 kg
长度 0.20 m
直径 2.80 m
跨度 9.00 m
形状 Box + pan
制造商 SPXS
平台类型 Starlink
阶段状态 In Orbit
所有者/国家 SPXS/US

大型星座

Loading constellations...